When you browse on this site, cookies collect data to enhance your experience and personalize the content and advertising you see.
Visit our Privacy Policy to learn more. By continuing to use the site, you agree to this use of cookies and data.
  • en France
  • Liste des pays
  • À 7 jours
  • Température de l'eau
  • Carte météo
  • Widgets météo
  • user-avatar
    Se connecter

    Météo par heure à Turpan

    Ce jour, 19 Septembre, Jeudi

    Heure Température Précipitation Vent Pression Humidité
    00:00 +27°C° 0 mm 1 m/s 764 mmHg 22%
    01:00 +27°C° 0 mm 2 m/s 763 mmHg 23%
    02:00 +26°C° 0 mm 2 m/s 763 mmHg 23%
    03:00 +26°C° 0 mm 2 m/s 762 mmHg 24%
    04:00 +25°C° 0 mm 1 m/s 762 mmHg 25%
    05:00 +24°C° 0 mm 1 m/s 763 mmHg 26%
    06:00 +22°C° 0 mm 0 m/s 763 mmHg 27%
    07:00 +26°C° 0 mm 1 m/s 763 mmHg 23%
    08:00 +28°C° 0 mm 1 m/s 763 mmHg 20%
    09:00 +31°C° 0 mm 2 m/s 762 mmHg 17%
    10:00 +32°C° 0 mm 2 m/s 762 mmHg 16%
    11:00 +34°C° 0 mm 2 m/s 762 mmHg 15%
    12:00 +35°C° 0 mm 2 m/s 762 mmHg 13%
    13:00 +36°C° 0 mm 2 m/s 761 mmHg 13%
    14:00 +36°C° 0 mm 2 m/s 761 mmHg 12%
    15:00 +37°C° 0 mm 2 m/s 760 mmHg 11%
    16:00 +35°C° 0 mm 2 m/s 761 mmHg 13%
    17:00 +33°C° 0 mm 1 m/s 761 mmHg 14%
    18:00 +31°C° 0 mm 1 m/s 762 mmHg 15%
    19:00 +31°C° 0 mm 1 m/s 762 mmHg 16%
    20:00 +30°C° 0 mm 1 m/s 762 mmHg 17%
    21:00 +29°C° 0 mm 1 m/s 763 mmHg 18%
    22:00 +29°C° 0 mm 1 m/s 763 mmHg 19%
    23:00 +28°C° 0 mm 1 m/s 763 mmHg 19%

    Demain, 20 Septembre, Vendredi

    Heure Température Précipitation Vent Pression Humidité
    00:00 +28°C° 0 mm 1 m/s 763 mmHg 20%
    01:00 +27°C° 0 mm 1 m/s 763 mmHg 21%
    02:00 +27°C° 0 mm 1 m/s 763 mmHg 21%
    03:00 +26°C° 0 mm 1 m/s 762 mmHg 22%
    04:00 +26°C° 0 mm 1 m/s 762 mmHg 22%
    05:00 +26°C° 0 mm 1 m/s 763 mmHg 23%
    06:00 +25°C° 0 mm 1 m/s 763 mmHg 23%
    07:00 +28°C° 0 mm 1 m/s 763 mmHg 20%
    08:00 +30°C° 0 mm 1 m/s 763 mmHg 18%
    09:00 +32°C° 0 mm 1 m/s 763 mmHg 15%
    10:00 +33°C° 0 mm 1 m/s 762 mmHg 14%
    11:00 +34°C° 0 mm 1 m/s 762 mmHg 13%
    12:00 +36°C° 0 mm 2 m/s 762 mmHg 12%
    13:00 +36°C° 0 mm 1 m/s 761 mmHg 12%
    14:00 +36°C° 0 mm 1 m/s 760 mmHg 11%
    15:00 +37°C° 0 mm 1 m/s 760 mmHg 11%
    16:00 +35°C° 0 mm 1 m/s 760 mmHg 12%
    17:00 +31°C° 0 mm 0 m/s 761 mmHg 14%
    18:00 +29°C° 0 mm 0 m/s 761 mmHg 15%
    19:00 +28°C° 0 mm 0 m/s 762 mmHg 16%
    20:00 +30°C° 0 mm 1 m/s 762 mmHg 16%
    21:00 +29°C° 0 mm 1 m/s 762 mmHg 17%
    22:00 +29°C° 0 mm 1 m/s 762 mmHg 17%
    23:00 +29°C° 0 mm 1 m/s 762 mmHg 17%

    Après-demain, 21 Septembre, Samedi

    Heure Température Précipitation Vent Pression Humidité
    00:00 +28°C° 0 mm 1 m/s 762 mmHg 18%
    01:00 +28°C° 0 mm 1 m/s 762 mmHg 18%
    02:00 +28°C° 0 mm 1 m/s 762 mmHg 18%
    03:00 +27°C° 0 mm 1 m/s 762 mmHg 18%
    04:00 +27°C° 0 mm 1 m/s 762 mmHg 19%
    05:00 +26°C° 0 mm 1 m/s 762 mmHg 19%
    06:00 +25°C° 0 mm 1 m/s 763 mmHg 20%
    07:00 +28°C° 0 mm 1 m/s 763 mmHg 18%
    08:00 +31°C° 0 mm 1 m/s 762 mmHg 15%
    09:00 +33°C° 0 mm 1 m/s 762 mmHg 13%
    10:00 +34°C° 0 mm 1 m/s 762 mmHg 12%
    11:00 +36°C° 0 mm 1 m/s 761 mmHg 11%
    12:00 +37°C° 0 mm 1 m/s 761 mmHg 10%
    13:00 +37°C° 0 mm 1 m/s 761 mmHg 9%
    14:00 +39°C° 0 mm 1 m/s 760 mmHg 9%
    15:00 +39°C° 0 mm 1 m/s 759 mmHg 8%
    16:00 +37°C° 0 mm 1 m/s 760 mmHg 9%
    17:00 +35°C° 0 mm 1 m/s 760 mmHg 10%
    18:00 +33°C° 0 mm 1 m/s 760 mmHg 11%
    19:00 +32°C° 0 mm 1 m/s 760 mmHg 12%
    20:00 +31°C° 0 mm 1 m/s 761 mmHg 13%
    21:00 +30°C° 0 mm 1 m/s 761 mmHg 14%
    22:00 +29°C° 0 mm 1 m/s 761 mmHg 14%
    23:00 +29°C° 0 mm 1 m/s 761 mmHg 14%

    22 Septembre, Dimanche

    Heure Température Précipitation Vent Pression Humidité
    00:00 +29°C° 0 mm 1 m/s 761 mmHg 15%
    01:00 +28°C° 0 mm 1 m/s 761 mmHg 15%
    02:00 +28°C° 0 mm 1 m/s 761 mmHg 15%
    03:00 +28°C° 0 mm 2 m/s 760 mmHg 15%
    04:00 +27°C° 0 mm 1 m/s 760 mmHg 16%
    05:00 +26°C° 0 mm 1 m/s 761 mmHg 17%
    06:00 +26°C° 0 mm 1 m/s 761 mmHg 17%
    07:00 +28°C° 0 mm 1 m/s 761 mmHg 15%
    08:00 +31°C° 0 mm 1 m/s 761 mmHg 13%
    09:00 +34°C° 0 mm 1 m/s 760 mmHg 10%
    10:00 +36°C° 0 mm 2 m/s 760 mmHg 9%
    11:00 +38°C° 0 mm 2 m/s 759 mmHg 9%
    12:00 +39°C° 0 mm 2 m/s 759 mmHg 8%
    13:00 +40°C° 0 mm 2 m/s 758 mmHg 8%
    14:00 +40°C° 0 mm 2 m/s 758 mmHg 7%
    15:00 +41°C° 0 mm 2 m/s 757 mmHg 7%
    16:00 +39°C° 0 mm 2 m/s 757 mmHg 8%
    17:00 +37°C° 0 mm 2 m/s 758 mmHg 9%
    18:00 +36°C° 0 mm 2 m/s 758 mmHg 10%
    19:00 +35°C° 0 mm 2 m/s 758 mmHg 10%
    20:00 +34°C° 0 mm 2 m/s 759 mmHg 11%
    21:00 +32°C° 0 mm 2 m/s 759 mmHg 11%
    22:00 +31°C° 0 mm 2 m/s 759 mmHg 12%
    23:00 +31°C° 0 mm 2 m/s 759 mmHg 13%

    23 Septembre, Lundi

    Heure Température Précipitation Vent Pression Humidité
    00:00 +30°C° 0 mm 2 m/s 759 mmHg 14%
    01:00 +29°C° 0 mm 1 m/s 759 mmHg 14%
    02:00 +28°C° 0 mm 1 m/s 760 mmHg 15%
    03:00 +27°C° 0 mm 1 m/s 760 mmHg 15%
    04:00 +27°C° 0 mm 1 m/s 760 mmHg 16%
    05:00 +26°C° 0 mm 1 m/s 760 mmHg 17%
    06:00 +25°C° 0 mm 1 m/s 760 mmHg 17%
    07:00 +28°C° 0 mm 1 m/s 761 mmHg 15%
    08:00 +31°C° 0 mm 1 m/s 761 mmHg 12%
    09:00 +34°C° 0 mm 1 m/s 761 mmHg 10%
    10:00 +37°C° 0 mm 2 m/s 761 mmHg 9%
    11:00 +38°C° 0 mm 2 m/s 761 mmHg 8%
    12:00 +39°C° 0 mm 2 m/s 760 mmHg 8%
    13:00 +39°C° 0 mm 2 m/s 760 mmHg 8%
    14:00 +40°C° 0 mm 1 m/s 760 mmHg 8%
    15:00 +40°C° 0 mm 1 m/s 759 mmHg 7%
    16:00 +37°C° 0 mm 1 m/s 760 mmHg 9%
    17:00 +35°C° 0 mm 1 m/s 760 mmHg 10%
    18:00 +31°C° 0 mm 0 m/s 760 mmHg 12%
    19:00 +30°C° 0 mm 0 m/s 761 mmHg 12%
    20:00 +29°C° 0 mm 0 m/s 761 mmHg 12%
    21:00 +29°C° 0 mm 0 m/s 761 mmHg 13%
    22:00 +30°C° 0 mm 1 m/s 761 mmHg 13%
    23:00 +30°C° 0 mm 1 m/s 761 mmHg 13%

    24 Septembre, Mardi

    Heure Température Précipitation Vent Pression Humidité
    00:00 +30°C° 0 mm 1 m/s 760 mmHg 14%
    01:00 +29°C° 0 mm 1 m/s 760 mmHg 14%
    02:00 +29°C° 0 mm 1 m/s 760 mmHg 14%
    03:00 +29°C° 0 mm 2 m/s 760 mmHg 14%
    04:00 +28°C° 0 mm 1 m/s 760 mmHg 15%
    05:00 +27°C° 0 mm 1 m/s 760 mmHg 16%
    06:00 +24°C° 0 mm 0 m/s 760 mmHg 17%
    07:00 +27°C° 0 mm 0 m/s 760 mmHg 15%
    08:00 +32°C° 0 mm 1 m/s 760 mmHg 12%
    09:00 +35°C° 0 mm 1 m/s 760 mmHg 10%
    10:00 +36°C° 0 mm 1 m/s 759 mmHg 9%
    11:00 +37°C° 0 mm 1 m/s 759 mmHg 8%
    12:00 +40°C° 0 mm 2 m/s 758 mmHg 8%
    13:00 +40°C° 0 mm 1 m/s 758 mmHg 7%
    14:00 +41°C° 0 mm 1 m/s 757 mmHg 7%
    15:00 +41°C° 0 mm 1 m/s 756 mmHg 7%
    16:00 +39°C° 0 mm 1 m/s 757 mmHg 8%
    17:00 +33°C° 0 mm 0 m/s 757 mmHg 10%
    18:00 +31°C° 0 mm 0 m/s 757 mmHg 11%
    19:00 +33°C° 0 mm 1 m/s 757 mmHg 11%
    20:00 +32°C° 0 mm 1 m/s 758 mmHg 11%
    21:00 +32°C° 0 mm 1 m/s 759 mmHg 11%
    22:00 +32°C° 0 mm 2 m/s 759 mmHg 12%
    23:00 +33°C° 0 mm 3 m/s 759 mmHg 13%
    Voir plus